KUIPER-00168

Last updated on Mon Oct 20 2025 00:02:06 GMT+0000 (Coordinated Universal Time)

1 65781U 25217V 25292.30149374 .00064025 00000+0 17119-2 0 9992 2 65781 51.8743 327.3993 0001958 63.0156 297.1031 15.37459727 3676
UTC large
Height (km)
Speed (km/s)
/
Latitude / Longitude
Inclination (degrees)
Orbital Period (minutes)
Azimuth
Elevation
Range (km)
Doppler Factor

Next 0 passes for location: London (51.5072 / 0.1276)

Sorry there are no passes over London.